Owosso, MI

5:19 PM EST on November 18, 2017 (GMT -0500)
Owosso

Weather History for KRNP - June, 2013

Change the Weather History Date:

Friday, June 28, 2013

  Actual Average (KFNT) Record (KFNT)
Temperature  
Mean Temperature 72 °F -  
Max Temperature 78 °F 79 °F 100 °F (1934)
Min Temperature 65 °F 57 °F 46 °F (1992)
Cooling Degree Days 6    
Growing Degree Days 22 (Base 50)    
Moisture  
Dew Point 67 °F    
Average Humidity 92    
Maximum Humidity 100    
Minimum Humidity 64    
Precipitation  
Precipitation 0.00 in - - ()
Sea Level Pressure  
Sea Level Pressure 29.60 in    
Wind  
Wind Speed 4 mph (NW)    
Max Wind Speed 14 mph    
Max Gust Speed 25 mph    
Visibility 8 miles    
Events Rain    
Averages and records for this station are not official NWS values.
T = Trace of Precipitation, MM = Missing Value Source: NWS Daily Summary

Daily Weather History Graph

Daily Weather History Graph

Search for Another Location

Airport or City:

Trip Planner

Search our weather history database for the weather conditions in past years. The results will help you decide how hot, cold, wet, or windy it might be!

Date:

Astronomy

Jun. 28, 2013 Rise Set
Actual Time 5:59 AM EDT 9:19 PM EDT
Civil Twilight 5:24 AM EDT 9:54 PM EDT
Nautical Twilight 4:38 AM EDT 10:40 PM EDT
Astronomical Twilight 3:42 AM EDT 11:37 PM EDT
Moon 12:07 AM EDT (6/28) 12:16 PM EDT (6/28)
Length of Visible Light 16h 30m
Length of Day
15h 19m
Waning Gibbous, 66% of the Moon is Illuminated
Jun 28
Waning Gibbous
Jun 30
Last Quarter
Jul 8
New
Jul 15
First Quarter
Jul 22
Full

Hourly Weather History & Observations

Time (EDT) Temp. Dew Point Humidity Pressure Visibility Wind Dir Wind Speed Gust Speed Precip Events Conditions
12:15 AM 68.0 °F 68.0 °F 100% 29.66 in 10.0 mi NNW 8.1 mph - N/A   Mostly Cloudy
12:34 AM 67.6 °F 67.6 °F 100% 29.67 in 10.0 mi NW 5.8 mph - N/A   Mostly Cloudy
12:55 AM 67.3 °F 67.3 °F 100% 29.65 in 10.0 mi Calm Calm - N/A   Scattered Clouds
1:15 AM 66.9 °F 66.9 °F 100% 29.64 in 7.0 mi East 3.5 mph - N/A   Clear
1:34 AM 67.1 °F 67.1 °F 100% 29.64 in 7.0 mi Calm Calm - N/A   Scattered Clouds
1:55 AM 67.1 °F 67.1 °F 100% 29.64 in 7.0 mi East 3.5 mph - N/A   Scattered Clouds
2:34 AM 67.1 °F 67.1 °F 100% 29.64 in 7.0 mi Calm Calm - N/A   Overcast
2:55 AM 66.7 °F 66.7 °F 100% 29.64 in 7.0 mi Calm Calm - N/A   Overcast
3:14 AM 67.1 °F 67.1 °F 100% 29.64 in 4.0 mi Calm Calm - N/A   Overcast
3:35 AM 66.6 °F 66.6 °F 100% 29.64 in 5.0 mi Calm Calm - N/A   Mostly Cloudy
3:55 AM 66.6 °F 66.6 °F 100% 29.64 in 5.0 mi Calm Calm - N/A   Mostly Cloudy
4:14 AM 66.2 °F 66.2 °F 100% 29.64 in 3.0 mi Calm Calm - N/A   Mostly Cloudy
4:35 AM 66.2 °F 66.2 °F 100% 29.64 in 0.8 mi Calm Calm - N/A   Overcast
4:55 AM 66.2 °F 66.2 °F 100% 29.63 in 1.2 mi Calm Calm - N/A   Overcast
5:15 AM 66.0 °F 66.0 °F 100% 29.63 in 2.0 mi Calm Calm - N/A   Overcast
5:35 AM 66.0 °F 66.0 °F 100% 29.63 in 2.0 mi WSW 3.5 mph - N/A   Overcast
5:55 AM 65.7 °F 65.7 °F 100% 29.62 in 2.0 mi Calm Calm - N/A   Overcast
6:15 AM 66.2 °F 66.2 °F 100% 29.63 in 4.0 mi NW 4.6 mph - N/A   Overcast
6:35 AM 66.2 °F 66.2 °F 100% 29.63 in 3.0 mi Calm Calm - N/A   Overcast
6:54 AM 66.4 °F 66.4 °F 100% 29.63 in 4.0 mi NW 3.5 mph - N/A   Overcast
7:15 AM 66.6 °F 66.6 °F 100% 29.63 in 4.0 mi Calm Calm - N/A   Overcast
7:35 AM 67.1 °F 67.1 °F 100% 29.62 in 4.0 mi Calm Calm - N/A   Overcast
7:54 AM 67.1 °F 67.1 °F 100% 29.60 in 4.0 mi SSW 4.6 mph - N/A   Overcast
8:15 AM 67.1 °F 67.1 °F 100% 29.60 in 7.0 mi WSW 3.5 mph - N/A   Overcast
8:35 AM 67.6 °F 67.6 °F 100% 29.61 in 7.0 mi Calm Calm - N/A   Mostly Cloudy
8:55 AM 69.8 °F 69.8 °F 100% 29.61 in 10.0 mi Calm Calm - N/A   Scattered Clouds
9:15 AM 70.7 °F 68.2 °F 92% 29.61 in 10.0 mi WNW 9.2 mph - N/A   Mostly Cloudy
9:35 AM 70.3 °F 67.3 °F 90% 29.61 in 10.0 mi WNW 8.1 mph - N/A   Overcast
9:55 AM 69.8 °F 66.4 °F 89% 29.60 in 7.0 mi West 5.8 mph - N/A Rain Rain
10:15 AM 68.4 °F 67.3 °F 96% 29.59 in 7.0 mi SW 3.5 mph - N/A Rain Light Rain
10:34 AM 69.6 °F 68.4 °F 96% 29.59 in 10.0 mi West 5.8 mph - N/A   Mostly Cloudy
10:55 AM 70.2 °F 68.2 °F 93% 29.60 in 10.0 mi West 9.2 mph - N/A   Overcast
11:15 AM 69.6 °F 67.5 °F 93% 29.60 in 10.0 mi West 5.8 mph - N/A   Overcast
11:34 AM 70.2 °F 67.8 °F 92% 29.60 in 10.0 mi West 6.9 mph - N/A   Overcast
11:55 AM 70.9 °F 68.2 °F 91% 29.60 in 10.0 mi SW 8.1 mph - N/A   Mostly Cloudy
12:15 PM 72.0 °F 68.2 °F 88% 29.59 in 10.0 mi West 8.1 mph - N/A   Scattered Clouds
12:34 PM 73.8 °F 68.0 °F 82% 29.59 in 10.0 mi West 9.2 mph - N/A   Scattered Clouds
12:55 PM 74.7 °F 66.4 °F 75% 29.59 in 10.0 mi West 12.7 mph 17.3 mph N/A   Scattered Clouds
1:15 PM 75.9 °F 67.5 °F 75% 29.58 in 10.0 mi WSW 9.2 mph 16.1 mph N/A   Scattered Clouds
1:34 PM 77.0 °F 67.5 °F 72% 29.58 in 10.0 mi West 10.4 mph 17.3 mph N/A   Scattered Clouds
1:55 PM 77.0 °F 66.2 °F 69% 29.57 in 10.0 mi WNW 8.1 mph - N/A   Scattered Clouds
2:14 PM 77.5 °F 66.2 °F 68% 29.57 in 10.0 mi West 13.8 mph - N/A   Mostly Cloudy
2:35 PM 77.9 °F 66.2 °F 67% 29.56 in 10.0 mi West 6.9 mph - N/A   Mostly Cloudy
2:55 PM 76.8 °F 66.4 °F 70% 29.56 in 10.0 mi West 10.4 mph 17.3 mph N/A   Mostly Cloudy
3:15 PM 78.1 °F 65.1 °F 64% 29.55 in 10.0 mi West 10.4 mph 17.3 mph N/A   Overcast
3:35 PM 69.4 °F 64.6 °F 84% 29.56 in 5.0 mi North 13.8 mph 25.3 mph N/A Rain Rain
3:55 PM 67.1 °F 64.9 °F 93% 29.57 in 10.0 mi North 8.1 mph - N/A   Overcast
4:15 PM 66.2 °F 64.2 °F 93% 29.56 in 10.0 mi NE 4.6 mph - N/A Rain Rain
4:35 PM 66.4 °F 63.3 °F 90% 29.56 in 10.0 mi NE 6.9 mph - N/A Rain Light Rain
4:54 PM 66.7 °F 62.8 °F 87% 29.55 in 10.0 mi NE 3.5 mph - N/A Rain Light Rain
5:15 PM 67.8 °F 64.0 °F 88% 29.54 in 10.0 mi NNE 3.5 mph - N/A   Clear
5:35 PM 68.9 °F 64.4 °F 86% 29.55 in 10.0 mi North 6.9 mph - N/A   Clear
5:54 PM 69.8 °F 65.3 °F 86% 29.58 in 10.0 mi WNW 5.8 mph - N/A   Clear
6:15 PM 70.2 °F 65.1 °F 84% 29.58 in 10.0 mi NW 4.6 mph - N/A   Scattered Clouds
6:35 PM 70.2 °F 64.9 °F 83% 29.58 in 10.0 mi NW 5.8 mph - N/A   Scattered Clouds
6:54 PM 70.2 °F 65.7 °F 86% 29.58 in 10.0 mi WNW 4.6 mph - N/A   Clear
7:15 PM 70.0 °F 65.7 °F 86% 29.58 in 10.0 mi NW 3.5 mph - N/A   Scattered Clouds
7:35 PM 70.2 °F 65.7 °F 86% 29.58 in 10.0 mi NW 3.5 mph - N/A   Mostly Cloudy
7:55 PM 70.2 °F 66.2 °F 87% 29.59 in 10.0 mi NNW 4.6 mph - N/A   Scattered Clouds
8:15 PM 69.8 °F 66.2 °F 88% 29.59 in 10.0 mi Calm Calm - N/A   Scattered Clouds
8:35 PM 69.3 °F 66.6 °F 91% 29.59 in 10.0 mi NW 4.6 mph - N/A   Clear
8:55 PM 69.1 °F 66.9 °F 93% 29.59 in 10.0 mi Calm Calm - N/A   Mostly Cloudy
9:15 PM 69.4 °F 67.1 °F 92% 29.59 in 10.0 mi NNW 3.5 mph - N/A Rain Light Rain
9:34 PM 68.2 °F 67.1 °F 96% 29.59 in 10.0 mi NNW 4.6 mph - N/A Rain Light Rain
9:55 PM 67.3 °F 66.7 °F 98% 29.59 in 10.0 mi Calm Calm - N/A Rain Light Rain
10:15 PM 67.3 °F 66.9 °F 99% 29.59 in 10.0 mi Calm Calm - N/A Rain Rain
10:34 PM 67.1 °F 66.6 °F 98% 29.59 in 10.0 mi Calm Calm - N/A   Drizzle
10:55 PM 67.1 °F 66.7 °F 99% 29.60 in 7.0 mi NNW 3.5 mph - N/A   Overcast
11:15 PM 66.4 °F 66.4 °F 100% 29.59 in 10.0 mi North 5.8 mph - N/A   Overcast
11:34 PM 66.2 °F 66.2 °F 100% 29.59 in 10.0 mi North 4.6 mph - N/A   Overcast
11:55 PM 66.4 °F 66.4 °F 100% 29.59 in 10.0 mi NE 3.5 mph - N/A   Overcast